Regional Weather Roundup
Issued by NWS

Home | Current Version | Previous Version | Graphics & Text | Print | Product List | Glossary On
Versions: 1 2 3 4 5 6 7 8 9 10 11 12 13 14 15 16 17 18 19 20 21 22 23 24 25 26 27 28 29 30 31 32 33 34 35 36 37 38 39 40 41 42 43 44 45 46 47 48 49 50
000
ASUS43 KBIS 240010
RWRND

NORTH DAKOTA REGIONAL WEATHER ROUNDUP
NATIONAL WEATHER SERVICE BISMARCK ND
700 PM CDT TUE MAY 23 2017

NOTE: "FAIR" INDICATES FEW OR NO CLOUDS BELOW 12,000 FEET WITH NO
SIGNIFICANT WEATHER AND/OR OBSTRUCTIONS TO VISIBILITY.


NDZ001>003-009>011-017-240100-
NORTHWEST NORTH DAKOTA

CITY           SKY/WX    TMP DP  RH WIND       PRES   REMARKS
WILLISTON      FAIR      71  33  24 SE9       29.98F
6HR MIN TEMP:  67; 6HR MAX TEMP:  73;

MINOT          FAIR      67  32  27 E8        29.98F
MINOT AFB      SUNNY     67  32  27 CALM      29.97F
$$

NDZ018>021-031>035-040>046-240100-
SOUTHWEST NORTH DAKOTA

CITY           SKY/WX    TMP DP  RH WIND       PRES   REMARKS
BISMARCK       FAIR      65  36  34 E15       30.00F
6HR MIN TEMP:  61; 6HR MAX TEMP:  67;

DICKINSON      FAIR      63  28  26 NE5       30.01F
GARRISON         N/A     65  32  29 E7        29.99F
6HR MIN TEMP:  61; 6HR MAX TEMP:  67;

HETTINGER ARPT SUNNY     63  32  31 NE9       30.03F
$$

NDZ004>008-012>016-024-026-027-054-240100-
NORTHEAST NORTH DAKOTA

CITY           SKY/WX    TMP DP  RH WIND       PRES   REMARKS
GRAND FORKS    CLOUDY    63  43  48 E12       29.96S
GRND FRKS AFB  SUNNY     62  40  44 E9        29.96F
DEVILS LAKE    PTSUNNY   61  38  42 NE8       29.99F
$$

NDZ022-023-025-028>030-036>039-047>053-240100-
SOUTHEAST NORTH DAKOTA

CITY           SKY/WX    TMP DP  RH WIND       PRES   REMARKS
FARGO          PTSUNNY   58  43  57 N14       29.94S
6HR MIN TEMP:  52; 6HR MAX TEMP:  61;

JAMESTOWN      CLOUDY    57  41  55 NE15      29.97F
$$




USA.gov is the U.S. government's official web portal to all federal, state and local government web resources and services.